Theta_e
311 312 311 311 311 310 310 310 312 314 314 315 316 314 315 317 315 316 316 315 315 314 315 315 314 314 314 313 314 314 314 314 314 314 313 313 314 315 317 319 322 324 322 320 324 328 330 331 332 333 334 334 335 335 335 335 334 335 335 334 334 333 333 334 334 334 334 333 333 333 334 334 334 334 334 334 334 333 332 332 331 331 331 330 330 330
311 311 312 311 311 311 310 311 311 310 311 313 317 317 315 316 316 315 314 314 314 314 316 316 315 314 315 315 314 314 314 314 314 313 313 313 313 314 315 317 319 319 318 318 322 325 327 330 331 331 333 332 332 333 334 335 334 334 335 334 334 334 333 333 333 334 334 334 333 332 332 333 333 334 334 334 334 334 333 333 332 332 331 331 331 331
310 311 312 310 311 312 311 311 310 310 311 314 317 317 316 318 316 315 315 315 314 314 317 318 316 316 317 315 313 314 315 314 313 313 313 313 313 313 314 315 317 317 318 319 321 322 324 327 329 330 331 331 330 332 333 333 334 333 334 334 334 334 333 333 332 332 333 333 333 331 331 332 333 333 333 333 333 333 333 333 332 332 331 331 331 331
312 312 312 312 311 311 311 310 310 311 311 315 319 315 317 319 316 316 316 314 313 313 316 317 316 317 316 315 316 316 316 315 313 313 313 313 314 314 314 315 316 317 318 320 320 320 321 324 327 328 329 331 330 330 331 332 332 332 333 334 334 334 333 333 332 331 332 332 333 331 330 331 332 332 332 332 333 333 333 332 332 331 331 331 331 331
313 313 312 313 311 310 312 311 311 311 311 317 322 318 318 319 318 319 317 314 314 314 316 314 315 319 317 315 317 316 316 314 313 314 312 313 315 314 315 315 316 318 317 319 320 319 319 321 324 327 328 329 330 330 330 331 331 331 332 332 333 333 333 333 332 332 332 332 332 331 330 330 331 331 331 332 333 333 333 332 331 331 330 330 330 330
313 312 312 313 311 310 312 312 313 314 312 315 320 320 320 322 323 320 317 316 315 315 317 313 314 324 325 318 316 314 314 313 313 315 313 313 315 314 315 315 316 317 316 318 318 317 317 320 323 325 326 327 328 329 329 330 331 331 332 332 332 333 333 333 332 332 332 332 332 331 330 330 330 330 331 331 332 332 332 332 331 331 331 330 329 329
313 310 311 313 314 314 314 314 316 317 314 312 318 322 320 325 327 323 319 317 316 316 316 314 315 321 323 322 322 317 315 315 312 314 315 312 313 314 314 314 314 315 316 317 318 316 315 318 321 322 324 325 326 327 328 329 330 331 331 332 332 332 332 332 331 331 331 331 331 331 330 330 330 329 330 330 330 330 330 331 331 331 330 329 328 328
313 310 313 315 315 316 315 315 316 317 316 315 322 327 323 323 327 328 323 318 320 319 318 321 319 316 319 322 324 319 316 317 314 312 314 313 312 313 313 313 314 315 316 316 318 318 314 315 319 321 323 324 324 325 325 327 328 330 331 331 331 331 331 331 331 330 330 329 329 330 330 330 330 329 328 329 329 329 329 330 330 330 329 328 327 327
312 312 314 315 316 317 316 318 320 317 317 319 324 327 325 325 330 332 327 321 320 317 320 326 319 315 324 328 326 321 315 319 321 317 316 314 314 314 313 313 315 316 317 317 318 318 313 312 316 319 321 323 323 324 324 325 326 327 329 330 330 330 330 330 330 330 329 329 329 329 329 330 329 329 328 328 328 328 329 329 329 329 329 328 327 326
313 313 314 315 315 317 320 325 327 320 315 320 324 325 327 330 330 328 328 325 319 316 325 331 320 314 324 330 326 318 314 318 322 321 318 316 316 316 315 316 316 317 318 319 319 315 312 312 314 316 318 320 322 323 323 323 324 325 326 327 328 328 329 329 330 329 329 329 329 329 329 329 329 329 328 328 327 327 328 329 329 329 328 328 327 327
312 311 316 317 314 317 322 321 321 322 319 321 324 325 324 327 330 330 332 328 317 320 333 335 324 314 317 329 326 317 318 320 317 318 317 316 317 316 316 316 315 316 316 319 319 314 310 311 313 313 314 315 318 319 321 322 323 324 325 325 326 326 327 328 328 329 329 328 329 329 329 328 328 328 328 327 326 326 327 327 328 328 328 328 327 326
314 311 314 316 311 315 319 316 317 322 321 322 326 325 319 322 332 334 330 323 318 325 332 326 322 317 316 327 327 319 322 320 315 318 317 317 321 321 318 317 317 318 318 318 322 319 315 314 312 312 312 313 314 315 317 319 321 322 324 324 325 325 326 327 327 327 328 327 328 328 328 328 327 327 327 327 326 326 326 326 326 327 327 328 327 325
316 314 314 314 312 314 318 316 317 320 319 321 323 319 316 319 324 324 323 321 321 325 322 315 317 319 319 321 321 319 320 317 315 316 316 319 326 328 324 322 323 326 327 326 326 327 327 320 311 310 311 312 312 313 313 315 317 319 322 323 324 325 325 326 326 327 327 326 327 326 327 327 327 327 326 326 326 325 325 325 325 326 327 326 326 324
318 317 314 315 313 313 316 314 314 318 318 317 317 317 321 323 316 315 321 320 320 322 318 312 315 320 320 319 318 317 315 316 314 313 318 323 327 332 328 325 327 328 330 333 332 332 332 320 310 309 311 311 312 312 313 313 313 315 319 321 323 323 324 325 326 326 326 326 326 326 326 326 326 326 325 325 325 324 324 324 324 324 325 325 324 323
320 318 315 315 314 313 316 316 316 318 317 318 319 320 323 325 321 321 324 322 322 323 317 312 316 321 319 317 320 318 314 316 314 316 325 327 328 333 329 326 328 327 328 331 331 333 328 315 310 311 311 310 311 311 312 313 313 314 316 319 321 323 324 325 325 326 325 325 325 325 325 325 325 325 325 325 324 323 323 322 323 323 323 323 323 323
318 318 316 316 315 314 316 318 317 316 315 318 320 321 321 324 330 331 327 326 326 323 317 315 320 326 320 316 318 317 315 316 315 317 322 321 322 325 324 324 326 326 329 329 329 332 325 312 310 313 311 311 311 310 311 312 312 313 314 316 318 320 322 323 324 325 325 325 324 324 324 324 324 324 323 323 322 321 321 321 323 323 324 323 323 323
316 316 316 316 314 313 315 316 316 315 316 317 317 322 324 325 333 330 320 318 318 318 320 318 319 325 320 316 319 317 315 315 315 317 317 317 319 320 321 324 323 324 327 327 327 330 324 313 312 314 312 312 311 310 311 310 311 312 312 314 315 317 320 322 324 324 324 324 324 323 323 323 322 322 322 321 321 320 320 320 323 324 324 325 324 323
318 317 314 315 315 313 312 314 316 316 316 318 318 320 320 319 326 326 318 317 315 316 320 316 317 324 320 318 322 319 316 316 315 317 316 317 320 320 322 324 324 327 326 326 327 326 321 313 313 315 314 314 313 311 312 310 310 311 311 312 314 315 318 320 321 323 322 323 323 322 322 322 321 321 321 320 320 320 320 320 322 324 324 324 324 323
321 320 313 313 315 315 315 315 315 313 312 317 319 318 319 318 318 320 318 320 319 316 320 320 319 322 319 321 323 315 315 320 318 316 315 316 319 320 322 324 326 329 330 331 332 332 325 313 312 316 316 315 315 313 313 312 311 312 312 313 313 314 316 317 319 321 321 321 321 321 321 320 320 320 319 320 320 320 321 322 322 323 324 324 323 323
319 322 317 313 314 316 316 315 316 315 311 314 315 313 317 320 318 319 320 323 322 317 320 322 318 322 326 326 321 313 314 320 319 318 319 318 319 321 323 324 327 331 334 335 334 336 330 314 311 316 316 316 316 315 314 313 313 314 314 314 314 314 315 316 318 319 320 320 319 319 319 318 318 318 319 320 321 321 322 323 323 323 323 323 323 322
314 320 321 314 311 313 316 317 318 316 313 314 315 313 314 316 317 320 320 323 323 319 320 318 318 331 338 326 319 316 314 316 320 324 327 327 325 324 325 326 329 332 336 335 330 330 326 313 311 316 316 316 317 316 315 315 315 315 315 315 315 316 316 316 317 318 319 319 318 318 318 317 317 317 319 321 321 322 323 323 324 323 323 322 322 322
316 317 320 316 313 316 320 320 317 317 315 315 315 314 314 315 317 318 318 321 322 320 320 318 318 332 338 325 320 319 316 319 322 325 330 331 327 326 326 326 329 332 333 330 326 328 322 312 311 314 314 315 316 316 316 316 316 316 316 317 316 317 317 317 317 318 318 318 318 318 317 317 318 318 320 321 322 322 322 322 323 322 322 322 321 321
321 320 320 318 316 318 319 316 313 314 316 316 314 314 313 315 316 316 317 319 317 315 318 317 316 321 327 327 326 323 320 320 321 322 324 325 324 323 323 323 325 328 328 327 330 330 318 309 311 313 312 314 315 316 316 316 316 316 316 317 317 318 318 318 318 318 318 318 317 317 318 318 319 319 320 321 321 322 321 321 321 321 320 320 319 319
322 321 320 318 315 318 319 315 312 312 314 315 314 315 315 314 315 318 323 323 320 317 316 314 314 316 323 330 328 327 323 320 322 320 317 319 322 323 322 322 324 325 324 325 330 327 313 308 311 311 310 313 313 314 316 316 316 316 316 317 317 318 318 318 319 318 317 317 316 317 318 318 319 319 320 320 320 321 320 320 319 318 318 318 317 317
319 318 319 319 317 318 320 317 314 313 314 316 318 318 317 316 314 317 321 319 318 321 318 315 315 317 324 327 323 323 322 319 321 319 316 319 321 321 323 324 326 326 324 323 325 325 320 317 313 308 309 311 311 313 314 314 316 315 316 317 316 317 318 318 318 317 317 316 316 316 317 318 319 319 319 320 319 319 318 318 317 316 316 316 315 315
323 321 318 319 318 317 317 317 316 316 315 318 321 320 317 317 315 317 321 317 315 322 320 315 314 315 320 319 315 317 317 316 317 316 315 317 316 318 324 327 328 327 325 324 324 325 325 322 313 307 308 310 310 311 312 312 314 314 314 316 316 316 317 317 317 317 316 316 316 316 317 317 318 318 318 318 317 317 316 315 315 314 314 314 313 313
325 321 315 315 316 315 317 319 318 319 316 315 319 319 316 317 316 319 325 320 317 321 319 315 314 314 315 315 315 319 319 319 320 319 319 322 321 323 324 326 328 327 328 327 326 326 325 323 318 309 308 310 310 310 311 311 312 313 313 314 314 315 316 316 316 316 315 316 315 315 316 316 316 316 316 316 315 314 314 313 313 312 312 311 311 311
322 317 315 316 314 317 324 324 318 316 316 314 316 318 317 318 318 318 320 318 319 320 316 315 316 314 314 315 318 321 320 320 320 319 320 321 323 326 325 325 326 326 327 326 326 328 325 325 324 312 307 311 312 310 311 311 311 311 312 313 313 314 315 315 315 315 314 315 315 314 315 314 314 314 314 313 313 312 311 311 310 310 310 309 309 309
320 316 316 315 314 320 326 323 317 315 316 315 315 317 317 319 320 318 316 317 319 317 313 314 317 316 313 314 316 317 318 318 316 314 315 315 319 327 326 324 325 326 326 324 324 327 326 327 328 316 309 311 312 311 312 311 311 311 311 312 312 312 313 313 313 314 313 313 313 313 312 312 312 311 311 311 310 310 309 309 308 308 308 308 308 307
317 317 318 314 314 319 321 319 317 315 316 315 315 316 316 317 318 316 315 315 315 315 313 314 318 317 313 313 315 315 316 316 313 311 313 314 320 327 325 325 328 327 325 321 321 324 324 326 325 313 308 310 310 310 311 310 310 311 310 311 311 311 311 312 312 312 311 311 310 310 310 310 309 309 309 308 308 308 307 307 307 307 307 306 306 306
315 318 318 314 314 316 316 316 316 316 317 316 315 316 314 315 316 315 314 314 314 315 315 315 317 315 312 313 315 316 316 314 311 312 315 316 320 323 324 326 327 326 323 322 322 322 320 322 323 313 307 309 310 309 310 309 309 309 308 308 308 308 308 308 309 308 308 308 308 308 308 307 307 307 307 306 306 306 306 306 305 305 305 305 305 305
315 317 315 314 316 314 313 316 317 317 317 316 317 316 314 314 314 313 314 314 314 314 314 315 315 312 313 315 315 315 316 315 314 317 319 319 320 321 323 325 325 324 324 322 322 323 321 323 325 316 308 307 309 309 309 308 307 306 306 305 305 305 305 305 306 306 306 306 306 306 306 306 306 305 305 304 304 304 304 304 304 304 304 304 303 303
317 318 316 316 317 314 313 317 319 318 316 315 316 316 313 313 313 313 315 315 313 313 314 314 313 312 316 318 315 314 316 317 318 318 318 318 319 320 320 320 321 322 323 324 323 323 322 318 314 310 307 307 307 308 307 307 306 305 304 304 303 304 304 304 305 305 305 305 305 305 304 304 304 303 303 303 302 303 302 302 302 302 302 301 301 300
317 318 316 316 317 315 313 316 318 317 315 314 316 317 315 313 313 314 314 314 312 312 313 312 312 312 315 316 315 315 316 319 318 316 315 315 314 315 317 318 321 324 325 326 323 318 315 310 304 304 305 305 304 305 305 304 304 303 303 303 303 304 304 303 303 303 302 302 302 302 302 302 302 301 301 301 301 301 301 300 300 299 299 299 298 298
316 318 317 317 321 317 313 315 317 316 314 316 319 319 315 313 313 314 314 314 314 313 313 313 312 312 311 312 313 313 314 317 318 317 317 315 311 314 319 320 322 324 322 322 320 315 308 304 302 301 302 302 303 303 303 303 303 302 302 302 302 302 301 300 299 299 298 299 299 299 299 299 300 299 299 298 298 298 298 297 297 296 296 296 296 296
315 318 318 317 318 316 313 315 317 314 314 319 318 314 312 313 313 313 315 315 315 314 313 313 311 311 311 311 312 315 316 316 316 317 321 320 316 316 319 320 322 324 322 318 314 308 302 300 300 300 300 301 302 302 302 302 302 301 300 300 299 298 297 296 295 295 295 296 296 296 296 297 297 296 296 296 296 296 295 295 295 295 295 295 296 296
313 316 318 314 314 317 317 315 316 316 315 316 316 312 312 314 314 314 315 314 313 312 313 313 312 312 312 312 315 319 318 314 313 317 320 322 320 319 318 317 316 315 309 301 297 296 295 297 299 299 299 300 300 300 300 300 300 299 297 295 295 294 294 293 292 292 292 293 293 294 294 294 295 294 294 294 295 294 294 294 295 295 295 296 296 296
311 316 318 314 314 320 320 316 317 317 315 314 317 316 314 315 315 315 314 313 312 312 312 312 313 312 312 314 318 319 316 313 314 315 316 317 318 318 314 305 297 296 295 292 292 293 293 296 297 297 298 298 296 296 296 296 297 296 293 292 292 292 291 290 289 290 291 291 292 292 293 293 294 294 294 294 294 294 294 295 295 295 295 295 295 295
313 315 316 316 316 317 318 317 316 315 314 316 320 319 315 315 316 314 314 314 314 315 315 313 312 312 313 315 318 317 315 314 314 314 316 319 315 311 310 302 292 289 291 291 291 291 291 293 295 295 296 295 293 293 295 295 295 293 290 289 289 289 288 287 287 288 289 290 291 292 293 293 294 294 294 295 294 295 295 295 295 295 295 295 294 294
313 313 313 316 317 315 315 316 315 313 314 319 322 319 314 313 314 315 317 317 316 317 316 312 311 312 313 315 315 315 316 315 314 314 312 308 303 298 297 297 293 289 289 289 289 290 291 292 293 291 291 290 290 292 293 294 293 290 287 287 287 287 286 286 287 288 289 290 291 292 293 293 294 294 294 294 294 294 294 294 294 294 294 293 293 293
314 314 313 313 316 316 315 315 315 314 316 321 322 316 312 313 315 316 316 318 321 321 316 313 313 312 313 315 315 314 315 314 312 307 299 298 300 295 289 290 290 288 287 288 288 290 290 289 289 288 287 287 289 290 292 293 291 287 285 286 286 285 285 286 287 288 290 291 291 292 292 292 292 293 292 292 292 292 292 292 292 292 293 293 292 292
314 315 314 312 314 315 315 314 314 315 316 319 316 311 311 315 316 315 315 317 324 326 319 314 315 314 313 314 314 314 312 305 302 301 297 296 298 294 288 287 287 287 287 287 287 288 288 285 285 285 285 286 288 289 291 293 289 285 285 285 284 283 285 286 288 289 290 291 291 291 291 291 291 291 291 291 291 292 292 292 292 292 292 292 292 292
313 314 313 312 312 314 314 313 314 314 314 314 312 309 312 317 319 319 317 315 318 326 323 317 316 316 313 313 315 314 308 302 299 298 295 293 292 290 288 287 286 286 286 285 285 286 286 283 282 283 283 284 286 286 289 291 288 283 284 284 282 284 286 287 288 290 290 290 290 290 290 290 290 291 291 291 291 291 291 291 291 291 291 291 291 291
312 313 314 313 313 315 315 312 314 315 313 311 312 311 311 317 323 325 322 317 315 318 321 321 319 315 313 316 316 311 305 302 299 295 294 292 290 289 287 286 285 285 284 283 283 283 284 282 280 280 281 283 284 284 286 289 287 284 283 282 282 284 286 287 288 289 289 289 289 289 290 290 290 291 291 291 291 291 291 291 290 290 290 290 290 289
310 311 313 313 313 315 314 311 314 316 312 311 315 315 313 317 318 319 325 327 321 314 315 319 317 312 312 316 315 308 304 301 297 294 293 291 288 287 287 285 285 284 283 282 282 281 282 280 279 279 280 280 282 283 283 285 286 284 282 281 282 284 286 287 288 289 289 289 289 289 289 289 289 289 289 289 290 290 290 289 289 289 288 288 287 286
312 311 313 314 313 313 311 311 314 314 311 313 315 312 313 316 313 314 325 330 320 312 312 314 314 312 312 313 314 310 303 297 294 292 290 288 287 286 285 284 283 283 282 282 281 280 280 280 279 279 278 278 280 282 282 283 285 284 281 281 283 285 286 287 288 289 288 288 288 288 288 288 288 288 288 288 288 288 288 288 287 287 286 285 284 283
312 311 313 315 314 312 310 312 315 314 313 316 314 308 309 312 309 310 320 322 313 309 309 309 308 309 310 313 319 314 300 293 293 291 288 287 287 285 284 284 283 283 282 281 281 280 280 279 278 278 277 277 278 281 282 283 284 283 282 283 284 285 286 287 288 288 287 287 287 287 287 287 287 287 286 286 286 286 286 285 284 284 283 282 281 281
312 310 313 316 314 312 311 311 314 314 311 312 313 312 313 312 308 305 309 309 307 306 305 303 303 307 309 311 315 311 298 291 292 290 287 286 286 284 284 283 282 282 282 281 281 280 280 279 278 277 276 276 277 279 281 282 283 283 283 284 284 285 286 286 287 286 286 285 285 285 285 285 285 284 284 283 283 283 283 282 282 281 281 280 280 280
312 310 314 317 314 311 311 310 310 312 310 308 311 314 312 308 306 303 301 301 302 302 302 301 299 302 305 306 306 306 300 292 289 289 287 286 285 283 283 283 281 281 281 281 280 280 279 278 277 276 275 275 276 278 280 281 281 282 283 283 283 284 284 285 284 284 283 282 282 282 282 281 281 281 281 280 280 280 280 280 280 280 280 280 280 280
311 311 313 314 312 311 312 312 311 314 316 313 312 311 306 301 302 302 299 300 302 301 301 301 298 295 296 297 298 303 301 292 287 287 286 285 284 283 282 282 281 279 279 279 279 278 278 277 276 275 274 274 275 278 279 280 280 281 282 282 282 282 282 282 282 281 280 280 280 279 279 279 278 278 279 279 279 279 279 279 279 279 279 280 279 280
313 315 313 311 312 313 313 314 313 317 320 317 310 307 303 299 302 304 302 301 302 300 300 303 302 299 296 292 291 295 297 290 285 286 286 284 283 283 282 281 280 278 278 278 277 277 276 275 275 274 273 274 275 277 278 278 279 279 280 281 281 280 280 280 280 279 278 278 278 278 278 278 277 277 278 278 278 279 279 279 279 279 279 279 279 279
Wind_Speed
5 5 7 8 7 6 6 5 6 7 3 4 4 5 7 6 3 3 2 4 1 4 5 8 7 8 8 7 7 7 5 6 7 7 8 7 8 9 10 10 11 11 11 16 23 27 30 32 33 33 34 34 33 34 36 37 36 36 36 37 37 37 36 36 36 36 36 36 35 33 32 32 31 31 31 30 30 29 29 30 30 30 28 27 26 23
5 7 8 8 7 6 7 7 8 9 4 2 4 4 6 6 4 3 2 3 2 2 4 4 5 8 8 8 7 5 6 8 10 10 10 10 9 8 10 12 12 9 8 11 18 24 29 30 31 32 33 35 35 35 36 37 38 36 36 38 38 38 38 39 38 37 37 38 38 37 37 35 33 32 32 33 32 31 30 30 31 31 31 30 29 27
6 7 7 8 8 7 7 8 9 10 7 2 3 4 4 4 3 2 3 3 3 1 3 2 2 8 9 8 6 6 8 9 11 12 12 11 10 9 10 11 10 8 8 9 12 19 27 29 31 32 33 35 37 36 37 38 38 37 36 38 38 38 39 39 39 39 39 39 38 37 36 36 33 31 32 32 31 30 30 30 30 31 32 33 32 30
5 6 8 10 10 9 8 8 9 8 6 3 3 4 3 3 4 1 3 2 2 1 2 2 2 6 7 6 6 7 9 8 8 11 10 9 11 12 11 10 10 11 11 10 10 14 21 26 29 32 33 35 35 35 37 38 39 39 39 39 39 39 39 39 39 40 40 38 37 36 34 34 32 28 27 28 28 29 30 30 29 30 32 32 32 30
6 5 7 9 11 12 8 7 9 6 4 3 3 5 2 2 3 3 2 1 3 3 1 3 4 6 5 5 8 7 8 7 6 8 9 9 10 10 9 9 11 12 12 12 11 11 16 23 29 33 35 35 35 37 39 40 40 40 41 41 41 41 41 40 40 40 39 37 35 34 31 29 29 26 23 24 28 30 30 31 31 32 32 32 32 31
6 4 6 7 9 12 9 7 9 7 4 5 4 6 6 5 4 4 5 4 3 4 3 2 1 6 5 4 8 6 5 7 6 8 11 11 10 9 8 9 11 11 11 11 12 12 16 22 28 31 34 35 36 39 40 41 42 41 42 42 41 41 42 42 42 41 40 38 36 35 33 31 30 29 29 31 33 33 33 33 33 33 32 32 32 33
3 1 5 8 8 12 9 5 8 8 6 4 5 4 6 8 7 7 6 3 2 3 3 3 4 5 6 4 8 5 5 9 8 8 11 11 10 9 10 11 10 10 10 10 11 12 15 21 24 27 33 36 38 40 40 40 41 41 41 41 41 41 42 42 42 42 42 40 38 37 37 36 35 34 36 38 36 34 34 33 32 32 31 30 30 32
3 4 6 8 6 9 8 5 6 7 7 4 4 2 5 8 7 7 6 4 3 3 4 4 3 3 5 6 8 5 5 9 8 8 10 9 10 11 11 11 10 11 11 10 11 11 13 19 24 28 33 38 39 40 39 40 40 40 40 40 41 41 41 42 41 42 42 42 41 40 39 38 38 38 37 37 34 33 32 30 30 30 30 29 28 29
4 7 9 9 5 5 6 5 6 8 6 4 4 4 6 7 7 6 6 4 1 1 3 5 1 2 5 6 6 4 3 7 8 8 10 10 11 11 12 12 11 11 10 10 12 12 14 21 28 32 35 38 39 38 39 41 41 40 40 39 40 40 40 40 40 41 41 42 41 40 39 38 39 38 36 33 32 31 29 29 30 29 29 28 28 28
2 6 7 9 6 5 5 3 5 8 5 3 3 5 5 4 5 5 5 4 3 1 5 6 2 2 5 6 4 3 2 6 8 7 8 10 11 11 11 12 12 10 9 10 10 11 15 22 29 31 32 34 37 37 38 39 38 39 39 38 38 39 40 40 40 41 41 41 40 40 40 39 38 37 34 31 29 30 29 29 29 29 29 29 28 27
2 0 1 3 4 5 5 3 1 4 6 5 5 6 7 5 5 4 3 4 3 2 6 7 5 4 3 5 4 3 5 6 7 6 7 8 9 11 11 10 10 9 8 9 8 9 12 17 22 25 27 30 33 34 34 35 35 36 37 37 38 39 39 40 40 41 41 42 42 41 40 39 37 35 34 31 29 30 30 31 31 30 30 29 28 27
4 2 0 1 1 2 6 4 4 2 4 7 5 5 4 3 4 4 4 3 2 4 6 5 3 5 4 5 5 5 6 6 6 6 7 8 9 9 8 8 8 7 8 8 7 7 8 9 12 17 22 25 27 29 31 33 34 35 36 37 37 37 38 39 40 41 41 42 43 42 40 39 37 35 34 34 32 31 32 32 31 30 29 29 28 27
4 1 1 3 2 2 6 5 3 4 1 5 5 6 5 1 2 1 2 1 3 5 4 3 1 3 5 7 8 8 10 10 8 7 7 8 7 6 5 5 4 4 6 6 6 6 7 7 9 13 17 20 23 27 30 32 33 34 35 36 37 37 38 39 39 40 40 41 42 42 40 39 38 36 36 35 35 33 33 32 31 31 30 29 29 28
1 4 3 3 2 1 4 6 3 1 2 4 6 5 4 3 3 2 3 1 3 4 3 2 2 2 3 5 10 12 14 14 8 6 8 8 7 7 6 4 4 4 5 5 5 6 5 6 9 13 15 17 20 24 27 29 31 32 33 34 35 35 35 36 37 38 39 40 40 40 39 38 37 36 36 36 36 35 33 33 33 33 33 32 31 30
5 2 2 2 1 1 2 3 4 6 5 4 5 6 5 5 4 4 4 2 4 3 3 3 1 3 2 4 9 10 11 12 8 6 6 6 6 5 4 4 4 4 5 5 5 6 7 9 13 16 17 19 21 22 25 27 28 29 31 32 33 33 33 34 35 37 38 39 39 38 38 37 36 36 37 36 35 34 33 33 33 33 32 32 31 29
6 2 3 2 1 1 2 2 1 7 5 3 3 5 5 5 4 3 3 4 4 1 1 2 2 4 4 5 9 7 7 8 8 7 5 5 4 1 2 4 5 5 6 6 6 7 8 11 15 17 18 20 21 22 24 25 26 28 29 30 32 32 33 34 35 36 36 37 36 36 36 36 36 36 36 36 35 34 33 32 31 30 30 29 27 26
6 1 5 4 3 1 2 3 2 3 4 2 3 4 5 4 6 4 1 0 3 1 3 2 3 4 3 5 8 7 7 8 8 7 5 6 5 4 4 6 6 6 6 6 7 7 7 9 13 16 18 20 21 22 24 25 27 28 29 30 31 31 31 32 33 34 34 34 34 34 35 35 36 36 35 34 33 32 30 30 29 28 27 27 25 24
6 2 4 2 1 2 1 1 2 1 3 4 4 6 3 2 4 3 1 1 2 3 4 1 4 4 2 2 6 6 6 9 9 7 6 6 5 6 8 7 7 7 7 7 7 7 7 9 13 16 18 19 21 23 24 26 26 27 28 29 30 31 31 31 32 32 32 32 32 33 34 35 35 34 33 32 31 29 27 27 28 28 27 26 24 23
5 3 3 1 1 4 2 3 1 2 1 4 3 3 3 3 3 3 3 3 2 4 4 2 4 3 3 4 5 7 7 8 9 7 5 6 6 6 8 8 7 7 6 6 6 6 6 9 13 16 17 18 19 21 22 23 24 25 26 27 28 29 29 29 29 30 31 31 32 32 33 33 33 32 31 30 28 27 26 25 26 27 27 25 23 23
5 4 1 2 2 2 3 2 4 1 2 2 1 1 2 3 5 4 4 4 3 3 4 3 3 3 5 6 6 9 10 8 7 6 5 7 6 6 7 7 7 7 6 6 7 7 6 8 13 15 16 17 18 19 19 20 21 23 23 24 25 26 26 27 28 29 30 30 31 31 31 31 31 31 30 27 26 26 27 26 25 25 26 24 23 23
3 4 2 2 3 1 1 2 6 7 4 2 2 4 2 1 2 2 2 3 4 4 4 2 3 5 6 5 7 10 9 7 6 4 5 6 5 6 6 6 6 6 7 7 6 6 5 7 10 13 14 15 15 16 17 18 19 20 21 22 23 24 25 27 27 28 29 29 28 29 29 29 29 29 29 27 25 25 26 27 26 25 25 24 23 22
3 4 5 3 1 3 4 4 4 6 4 4 5 7 6 3 4 4 4 1 2 3 4 3 4 7 6 4 6 7 6 6 6 5 5 5 6 6 5 5 6 6 6 7 6 5 5 6 10 12 13 13 13 14 15 17 18 19 20 21 22 23 25 26 27 27 27 27 27 27 27 27 26 27 27 27 26 25 26 26 26 25 25 24 23 22
4 5 5 2 3 5 6 5 2 1 0 1 3 4 5 5 6 7 6 3 1 3 3 3 5 8 6 5 6 6 6 6 5 5 5 6 6 6 6 5 6 5 6 6 5 5 6 8 9 10 11 12 13 14 15 17 18 20 21 21 21 23 24 25 26 26 26 26 26 26 25 24 24 25 26 27 27 26 26 25 25 24 24 23 22 22
4 5 4 2 1 3 5 5 2 2 2 1 3 1 3 3 3 5 5 4 4 5 4 3 6 8 5 6 6 5 5 5 5 5 6 7 6 6 6 6 6 6 5 3 2 3 4 7 8 9 11 13 14 15 16 17 18 19 20 20 22 22 23 23 23 24 24 25 25 25 24 23 23 24 25 26 26 26 25 23 22 22 21 20 19 19
2 3 4 5 2 3 3 4 3 1 2 1 3 2 4 4 2 3 2 3 4 7 7 5 8 8 4 3 4 4 4 5 7 6 6 6 6 6 6 5 5 5 4 3 2 2 3 6 7 10 12 14 15 16 17 18 18 19 20 21 22 22 21 21 21 21 21 22 23 24 24 23 23 23 25 25 25 24 22 21 19 18 18 17 17 17
4 5 5 7 7 6 6 5 4 4 2 1 4 5 7 6 6 5 4 3 6 6 7 7 10 7 2 2 3 4 4 5 7 5 5 6 6 6 6 5 4 4 4 5 4 4 5 5 6 9 12 14 15 17 18 19 19 19 19 20 21 21 20 19 18 18 18 19 20 22 23 23 23 23 23 23 22 20 19 18 17 17 17 16 16 16
4 4 6 10 11 10 7 4 5 9 7 6 7 7 7 6 6 5 4 5 6 3 5 10 13 9 6 3 4 5 3 4 6 5 5 5 5 5 5 5 4 4 5 5 5 5 6 6 6 8 11 14 15 17 18 18 18 19 19 19 19 19 18 18 17 17 17 18 19 20 20 21 21 21 20 19 18 16 16 15 15 15 15 15 15 14
5 4 7 9 8 7 7 6 9 13 12 12 10 9 9 7 7 7 6 7 6 5 7 13 11 12 10 7 7 8 5 5 7 7 7 7 6 5 4 3 3 3 5 5 5 6 7 6 5 6 9 12 14 15 16 16 16 17 17 16 16 16 17 17 17 16 16 17 18 18 17 17 17 16 15 15 14 14 14 13 13 13 13 13 12 12
6 5 6 6 4 4 7 8 11 13 11 11 11 12 11 10 10 12 14 12 9 8 14 11 8 13 13 9 10 10 7 8 9 7 6 4 4 5 3 2 3 4 6 7 7 8 7 6 5 6 8 11 12 13 13 13 13 14 14 14 14 15 16 16 16 15 15 15 15 14 13 13 13 13 12 12 12 12 12 12 12 12 11 11 11 10
4 4 4 7 5 4 6 9 11 11 8 8 11 13 14 15 17 18 18 17 12 12 15 7 6 16 13 9 10 9 8 8 5 3 3 2 5 6 3 3 4 6 7 8 8 8 6 5 5 6 9 11 12 12 12 12 13 13 13 14 14 14 14 15 14 13 13 12 11 10 9 9 10 10 10 10 10 10 10 10 10 10 10 10 9 9
2 4 4 7 6 3 5 5 5 6 8 8 9 12 15 17 19 19 17 12 8 10 14 8 9 15 8 6 9 7 5 3 1 2 5 6 7 5 4 5 6 7 8 8 9 8 5 5 5 6 9 11 12 13 13 13 12 12 12 12 12 12 11 12 11 11 10 9 8 7 7 7 7 8 8 8 8 8 8 8 8 8 7 7 6 6
3 3 2 6 6 5 4 6 6 6 6 4 9 17 19 17 15 13 11 8 9 13 13 10 11 11 2 5 8 5 4 4 4 6 7 7 7 6 6 7 7 7 8 8 8 7 6 6 6 7 9 12 13 13 14 15 14 13 12 11 11 10 11 11 11 11 10 9 8 7 6 6 7 7 7 6 6 6 6 6 5 4 4 3 2 2
6 6 3 6 7 4 2 7 8 8 6 4 12 14 15 13 10 8 8 10 13 12 9 10 12 8 4 5 7 5 5 5 7 7 7 8 8 6 6 7 7 7 8 8 8 7 7 7 8 10 12 13 14 14 14 15 15 14 13 12 12 12 13 13 13 13 12 10 8 8 7 7 7 7 6 5 5 5 5 5 5 5 4 5 5 5
5 8 5 5 5 2 3 7 8 5 6 9 5 10 15 15 14 13 12 13 12 10 8 10 12 8 5 6 5 5 6 7 7 7 7 6 5 6 7 7 7 8 8 9 8 6 5 6 7 9 11 13 14 14 14 14 15 15 14 14 14 14 15 15 15 14 13 12 11 10 9 9 9 9 8 8 7 7 7 7 8 8 8 8 8 8
6 6 4 3 5 3 4 7 6 7 10 6 2 7 15 16 15 14 13 10 11 12 14 15 17 15 9 4 2 4 6 6 5 6 8 5 4 5 6 7 8 9 8 7 6 4 2 6 9 11 13 15 15 15 16 16 17 18 17 17 17 17 17 18 18 17 16 16 14 13 12 11 12 12 12 11 11 10 11 11 11 11 10 10 11 10
9 7 3 3 4 3 4 6 7 7 7 6 4 1 6 7 7 6 9 10 11 14 15 17 19 16 7 2 3 5 5 3 2 5 7 7 7 8 8 7 7 5 3 3 5 6 4 8 13 15 16 16 16 17 18 19 20 21 22 21 21 21 20 20 21 19 18 18 17 15 14 14 14 15 15 14 14 14 14 14 14 14 13 12 12 12
10 8 4 3 2 4 4 5 4 5 9 8 3 3 5 6 7 7 8 14 14 12 12 13 16 15 7 5 7 6 3 1 3 5 7 8 7 5 3 1 2 4 6 8 10 12 14 15 16 16 17 18 18 19 21 22 23 25 26 24 23 23 21 21 21 20 19 19 18 17 17 16 17 18 17 17 17 17 16 16 15 15 13 12 12 12
7 6 7 6 2 4 5 3 2 4 8 7 5 6 8 9 10 10 8 12 10 9 10 12 15 16 9 6 8 6 5 3 7 7 7 7 2 4 7 6 8 9 11 13 16 19 20 20 20 19 19 20 20 19 22 24 25 27 27 24 23 23 22 22 21 20 21 21 20 20 19 19 19 19 19 18 18 17 16 15 15 14 13 13 13 13
5 2 6 7 3 4 6 4 5 7 8 4 6 7 8 9 10 10 3 8 5 8 12 14 16 15 9 9 9 6 6 5 8 6 5 2 3 6 6 6 9 13 15 15 18 20 21 22 22 21 21 22 21 20 22 23 25 26 26 23 23 23 23 21 20 20 22 22 21 21 20 20 19 19 18 18 17 17 16 15 14 13 13 12 13 13
5 3 4 6 5 5 7 4 4 5 5 6 9 7 7 10 13 11 3 8 5 9 12 13 15 14 10 10 7 6 7 8 7 4 3 3 6 6 6 7 9 11 15 17 18 20 21 22 23 22 21 20 20 20 22 23 24 26 25 23 24 24 22 20 19 21 22 22 21 21 20 19 19 18 18 18 16 16 15 14 13 12 12 12 12 11
3 1 2 5 6 6 7 6 4 4 5 8 8 8 10 10 10 6 8 7 5 8 8 9 12 12 9 8 6 6 7 5 2 3 3 5 7 7 9 11 13 14 15 17 18 20 22 22 23 23 21 18 19 20 21 22 24 25 23 23 24 22 19 18 20 21 22 22 21 21 20 20 19 18 18 17 15 14 14 14 13 12 12 12 11 11
4 2 1 3 5 4 5 4 3 6 5 6 7 9 11 8 3 6 7 4 5 7 6 8 11 10 8 9 7 6 3 3 5 5 5 6 6 6 7 10 14 15 15 17 18 20 23 23 23 23 20 18 19 19 20 22 24 24 24 25 23 19 17 19 21 22 22 22 21 21 20 19 19 18 17 16 15 14 14 14 13 13 13 12 12 12
7 6 4 5 5 3 3 4 4 6 5 10 12 7 6 6 6 6 4 2 3 5 6 6 6 5 7 7 4 5 7 6 5 6 6 6 6 7 7 8 11 12 13 15 15 17 22 23 21 21 19 18 18 19 20 23 25 25 25 24 20 17 19 20 21 21 21 21 21 20 20 19 18 17 17 15 14 14 14 13 13 12 12 12 12 13
6 7 6 5 4 4 5 7 6 5 7 12 13 9 8 7 5 6 6 3 1 3 5 4 1 3 5 7 8 7 7 7 6 6 7 6 6 6 6 8 11 12 13 15 14 16 22 23 22 21 20 19 19 19 20 24 27 27 25 22 18 18 20 20 20 21 21 21 21 20 19 18 17 16 16 15 13 13 13 12 11 11 12 12 13 14
9 7 4 4 6 5 6 9 6 3 6 6 5 6 9 6 2 4 7 5 2 4 3 5 4 1 1 7 9 6 5 6 6 6 6 6 6 6 7 8 10 12 14 15 15 17 21 23 23 23 22 19 19 20 20 23 26 27 23 19 17 18 19 19 20 21 21 20 20 19 18 17 16 15 15 14 12 12 12 12 11 11 12 13 14 15
6 6 4 4 5 5 5 4 2 3 4 4 0 0 5 5 2 4 6 5 3 4 3 5 6 4 4 7 8 6 5 7 7 6 6 7 6 6 8 10 11 13 15 16 16 18 21 23 23 23 22 20 19 20 20 21 24 25 21 18 18 19 19 19 20 21 20 20 19 17 16 16 16 15 14 14 13 13 13 12 12 13 14 14 15 16
2 5 5 4 5 5 5 4 6 6 8 8 3 3 3 3 1 2 5 5 5 5 5 5 6 5 5 6 8 8 8 8 9 8 6 7 7 7 7 9 11 12 14 16 17 19 21 22 22 21 22 20 19 20 21 21 23 23 20 18 19 19 18 18 19 19 19 18 17 16 15 15 16 15 15 14 15 15 15 15 15 16 16 16 16 15
2 5 5 5 7 7 4 3 4 4 3 4 4 2 2 3 2 3 4 5 5 4 4 4 4 5 5 5 8 10 10 8 10 10 8 6 7 7 7 10 12 14 15 16 18 18 19 21 21 20 20 20 18 20 21 21 21 21 19 19 19 18 18 18 18 19 19 18 17 16 16 16 17 17 17 17 17 17 17 17 17 18 17 16 15 14
5 6 5 5 5 3 1 0 2 4 5 2 5 4 3 5 6 5 5 6 6 5 4 4 3 2 4 6 8 10 10 9 9 10 10 8 7 8 9 12 14 15 16 17 17 18 19 20 20 20 20 18 17 19 20 20 20 19 18 18 18 17 17 18 18 18 18 17 17 17 17 17 17 17 18 18 18 18 17 16 16 16 15 14 13 12
6 6 4 5 6 6 4 6 6 4 2 6 8 5 4 5 8 8 6 6 6 6 6 6 4 3 3 5 8 10 10 9 8 10 10 9 8 11 13 15 15 16 17 18 18 18 19 19 19 21 20 17 17 18 19 19 18 17 17 17 17 17 17 17 17 18 17 17 17 17 17 17 18 17 17 18 17 17 16 15 14 13 13 13 12 11
6 8 7 7 7 6 6 9 8 5 3 6 6 7 6 5 7 8 6 6 6 6 7 7 6 4 3 3 4 8 10 10 10 11 9 8 10 14 16 16 16 16 17 18 19 19 18 18 18 19 19 17 17 17 17 17 17 16 16 16 16 16 16 16 17 17 17 17 17 17 16 17 17 17 17 17 16 16 15 15 14 13 13 13 12 12
Wind_Direction
165 170 197 207 205 199 205 194 205 233 210 141 161 188 199 198 240 257 258 298 144 152 218 214 219 251 252 241 232 225 214 223 237 230 221 211 200 200 200 204 205 208 215 209 205 204 202 204 203 204 204 204 205 205 205 205 207 208 208 206 206 207 207 207 207 207 207 207 209 212 215 217 220 222 222 222 222 223 223 222 224 225 225 226 226 229
173 195 205 195 192 198 202 205 223 245 260 120 137 177 215 204 217 266 264 305 349 157 243 240 235 262 258 248 242 195 180 217 222 217 222 218 208 204 202 207 208 210 213 203 204 206 204 204 203 203 203 202 203 204 204 204 206 207 208 207 208 208 207 207 208 208 207 209 209 211 214 217 220 221 221 220 222 224 226 225 226 227 227 228 228 233
189 207 198 179 188 204 208 210 221 238 243 215 110 140 214 210 182 306 320 331 15 164 266 334 239 256 260 256 248 189 189 221 217 208 215 212 209 210 206 208 207 206 208 201 202 205 204 203 202 201 202 202 204 204 204 206 207 206 207 209 209 208 207 208 210 210 211 212 212 213 215 215 217 222 223 224 226 228 229 229 228 229 229 229 231 234
189 211 193 179 189 204 217 214 214 236 239 204 113 122 224 205 151 229 290 320 14 120 179 50 341 272 273 279 269 219 210 229 224 215 220 212 209 214 207 201 199 200 205 204 203 204 202 201 201 201 202 203 203 203 204 205 206 206 207 209 209 208 208 209 210 212 213 213 213 216 218 216 217 222 225 228 231 232 231 230 229 230 229 230 231 230
189 193 177 175 189 199 206 205 205 219 241 234 156 143 197 196 156 174 176 126 13 359 111 84 359 301 262 257 263 244 223 234 229 217 230 232 226 225 217 207 202 201 201 199 203 203 198 199 201 202 203 203 202 204 205 205 206 206 207 209 209 209 209 209 209 210 211 211 212 213 214 216 217 220 221 221 225 226 226 228 230 230 229 229 229 228
201 183 157 171 188 194 192 190 194 188 203 251 221 175 176 168 140 121 120 93 46 337 293 114 37 293 287 260 253 256 249 250 232 209 223 227 227 228 223 220 215 210 206 201 203 200 198 200 201 202 203 202 204 206 206 206 206 207 207 208 209 209 210 211 211 210 210 209 209 207 206 208 211 213 215 216 219 220 222 227 230 230 229 229 229 229
205 132 167 183 179 184 188 186 193 174 162 221 243 199 163 140 124 128 134 106 111 252 287 96 151 257 315 307 260 257 255 258 246 222 228 226 222 220 218 221 217 214 214 211 211 204 200 200 199 202 204 204 206 208 208 207 207 207 207 208 208 210 211 212 213 212 211 210 209 208 209 209 209 211 216 218 221 223 225 228 229 229 228 230 232 231
151 140 190 191 162 171 182 191 197 155 138 208 243 149 137 133 138 147 137 126 182 226 319 21 123 218 300 280 266 261 243 267 266 240 239 232 226 225 225 227 217 214 213 210 213 210 204 201 200 203 205 206 208 209 208 208 208 208 208 208 209 210 211 212 212 213 212 211 211 211 212 214 214 216 219 219 221 225 228 228 228 228 228 230 232 232
144 168 194 185 155 166 183 192 182 143 134 232 228 141 144 145 147 142 123 119 116 101 301 312 101 183 273 273 293 310 268 286 280 246 240 231 226 227 228 228 221 217 214 209 212 210 207 204 204 206 207 209 210 209 209 209 210 209 209 210 210 211 212 212 212 212 212 212 212 213 213 214 217 219 221 221 220 221 224 226 227 228 230 231 231 231
192 186 189 174 167 183 191 193 171 152 156 216 165 99 82 85 94 103 114 113 77 84 243 260 204 178 278 284 304 324 276 273 267 250 241 232 229 229 229 228 222 218 214 214 217 215 213 210 210 210 209 211 211 210 211 210 210 210 210 210 211 212 213 213 213 213 212 212 212 212 212 212 214 216 219 221 221 220 221 224 227 227 229 232 231 232
284 249 151 155 178 180 156 128 146 171 159 133 101 69 55 40 40 50 62 95 103 267 250 240 202 171 274 281 251 230 228 233 244 260 264 253 246 237 235 233 224 219 217 217 220 224 222 219 217 215 213 213 213 211 211 210 210 210 210 211 212 214 214 214 214 214 213 213 212 213 212 212 212 213 214 217 220 220 220 223 226 227 228 231 232 233
14 50 147 338 240 146 107 90 6 343 139 114 97 95 85 18 14 22 3 47 157 252 259 251 196 165 224 264 244 243 256 245 224 236 253 254 257 255 252 247 234 225 222 221 222 219 213 210 211 210 211 214 212 210 209 209 209 210 211 211 211 213 214 215 215 215 215 214 215 215 215 215 215 215 215 217 218 219 219 221 223 225 226 227 230 231
30 17 275 342 292 155 115 119 22 358 103 111 114 121 118 66 30 26 300 283 221 248 256 267 188 182 232 250 255 268 277 269 235 216 235 241 243 249 244 230 211 193 195 204 209 205 199 195 193 195 200 205 205 207 208 208 209 209 210 210 210 212 213 214 215 215 215 215 216 217 217 218 219 219 220 220 221 221 220 220 220 220 221 222 225 229
25 315 313 2 303 210 140 154 143 160 169 135 140 136 137 136 102 193 242 262 259 261 266 277 258 250 276 259 247 246 253 264 256 226 237 240 234 227 215 201 185 177 186 194 198 200 204 208 204 199 197 197 200 203 205 207 208 208 208 208 210 212 212 213 214 214 215 216 217 217 218 219 220 221 223 223 224 224 224 224 223 223 224 224 226 230
165 247 255 172 227 294 162 171 154 150 157 168 161 137 148 163 147 184 201 199 233 264 296 297 251 195 201 252 243 231 245 270 278 251 228 221 227 221 210 210 202 211 220 212 210 212 212 212 211 211 208 205 204 204 204 206 207 206 207 208 209 210 210 211 213 214 216 217 217 218 218 219 221 223 224 226 227 227 228 228 228 228 229 230 232 235
154 181 287 278 288 112 158 245 111 127 149 207 149 123 166 182 146 146 180 177 176 179 279 258 236 208 208 273 273 251 253 271 274 271 245 225 249 273 231 233 224 230 234 224 222 225 225 218 213 213 215 215 213 211 209 208 207 207 208 208 210 211 211 211 212 214 215 216 217 217 219 221 223 224 226 227 229 231 231 229 228 230 232 233 236 238
149 139 322 331 355 57 162 253 307 133 165 181 133 167 205 169 121 119 236 123 107 200 254 194 239 284 318 300 289 277 265 272 281 286 270 259 286 308 263 247 242 243 240 234 227 225 225 218 214 215 217 219 218 217 216 215 213 212 211 210 211 212 212 212 212 214 214 215 216 217 219 221 223 224 225 227 230 232 231 227 226 230 233 235 238 239
145 116 322 21 81 265 194 161 334 4 141 132 158 196 192 98 98 116 192 352 73 235 269 171 207 272 346 279 313 327 288 271 270 266 264 271 278 267 255 248 244 244 245 249 244 235 225 210 207 210 213 217 219 218 219 219 218 217 215 214 212 211 211 212 213 214 215 215 217 218 219 220 222 223 225 228 230 232 230 226 225 228 232 235 237 238
132 113 313 4 190 270 344 96 145 325 102 141 183 187 120 130 180 150 173 204 195 227 276 279 232 240 193 220 294 305 275 264 271 276 266 256 249 247 259 263 260 259 256 255 246 238 227 207 202 202 205 212 215 218 220 219 218 217 216 216 215 214 214 214 214 215 216 217 218 220 221 222 222 223 225 228 229 229 227 224 224 226 229 232 234 234
139 125 244 296 284 274 359 77 168 220 345 39 56 144 103 151 181 171 172 172 166 209 256 287 285 259 226 215 226 242 246 246 267 289 258 241 241 239 252 263 262 255 243 235 229 226 222 211 204 200 203 208 211 215 217 214 213 212 213 214 215 216 215 215 215 215 216 218 219 222 223 223 224 223 223 224 225 225 224 223 224 225 228 229 230 231
144 127 163 282 324 154 188 213 179 177 174 132 147 180 189 40 112 154 191 157 143 181 216 240 271 263 249 214 204 227 241 228 228 240 230 233 246 246 247 252 257 251 236 231 231 231 228 218 209 203 206 209 208 210 209 207 208 208 210 212 212 213 213 213 214 214 216 218 219 222 223 223 223 222 219 218 221 224 224 223 224 225 227 228 229 230
154 123 135 164 198 182 224 244 194 186 182 165 176 185 182 148 120 158 223 247 126 180 187 189 244 259 250 212 204 216 222 221 216 207 222 244 251 254 255 251 255 252 242 244 243 235 221 207 203 200 200 200 198 200 201 203 206 206 208 209 210 211 211 211 212 213 216 217 218 220 221 222 221 218 216 216 219 222 222 223 224 225 228 230 231 232
117 105 111 146 192 211 246 261 208 175 301 208 212 191 173 162 141 162 204 215 176 215 180 159 239 258 244 212 208 207 204 221 222 201 224 255 251 255 266 271 273 260 254 258 241 222 208 195 191 188 188 191 192 195 197 200 204 206 207 206 207 209 211 212 214 215 217 217 217 218 218 220 220 218 217 217 220 223 223 225 227 230 233 234 235 237
92 97 103 86 293 297 305 310 342 49 45 251 255 129 149 200 162 157 184 167 168 208 181 176 250 261 247 208 206 219 222 240 248 221 227 253 264 271 271 276 277 267 273 279 219 202 194 179 175 176 181 189 194 196 199 200 203 205 205 205 206 209 211 213 214 217 218 218 217 216 216 218 218 218 218 219 222 225 227 230 232 234 237 237 238 240
124 136 125 104 74 353 342 314 294 23 75 217 236 188 181 206 152 117 130 126 191 209 171 178 242 251 259 239 223 246 267 275 265 235 217 241 264 275 267 264 270 267 271 257 212 184 170 171 180 189 192 195 198 200 202 203 205 206 206 206 207 209 211 213 214 216 218 218 217 216 216 217 217 218 219 221 224 227 230 233 235 236 238 238 240 242
144 163 151 142 164 190 196 214 214 168 129 224 217 195 194 195 174 151 126 152 221 216 161 192 237 237 263 321 289 287 305 296 274 247 221 232 240 248 254 263 276 266 248 237 228 211 197 199 204 203 203 204 205 206 205 206 207 208 209 210 209 209 209 210 213 215 215 216 215 216 216 217 218 220 222 224 227 229 231 233 234 236 238 238 241 243
117 165 187 185 193 191 180 185 152 134 149 204 198 181 189 194 178 150 128 181 202 164 174 223 235 231 226 244 283 292 277 259 274 286 288 275 266 262 258 261 265 255 246 244 236 223 216 219 221 213 211 211 211 211 209 209 208 207 208 208 209 210 209 210 211 213 214 214 214 216 217 218 221 223 225 227 229 231 232 234 235 236 237 238 239 241
114 189 205 193 197 181 154 160 155 150 172 195 183 175 188 181 163 167 199 207 160 129 227 233 228 236 234 214 237 259 251 253 267 271 276 280 280 277 272 286 291 278 275 267 246 231 219 213 218 217 212 210 210 211 210 210 210 208 208 206 205 206 207 208 209 209 211 213 215 218 220 221 223 224 227 228 229 231 231 231 232 231 232 235 237 240
129 194 200 167 174 178 154 158 163 164 179 186 175 179 184 175 176 193 215 213 165 183 235 229 207 238 237 201 213 230 228 245 255 259 277 289 270 265 266 308 305 273 263 254 241 236 222 207 209 208 200 197 197 199 200 202 203 202 202 201 199 200 202 203 205 205 207 210 214 218 219 220 221 222 225 226 225 227 225 223 224 225 229 234 237 240
129 183 184 145 148 186 177 172 170 165 167 178 185 188 184 184 193 202 214 214 194 215 246 241 222 250 246 200 206 219 216 233 258 295 300 242 239 247 229 226 245 244 245 241 240 243 231 210 205 195 186 182 181 182 180 180 184 185 186 186 187 189 191 195 198 198 199 201 206 210 209 212 216 217 219 219 218 218 217 217 220 224 230 234 235 239
115 179 173 126 129 204 201 162 140 146 157 173 195 202 197 196 202 209 215 213 202 234 253 255 252 262 257 175 197 216 203 186 148 250 245 241 247 241 211 220 235 240 245 244 244 247 237 222 212 192 182 178 177 174 168 164 164 166 168 170 173 174 175 180 181 177 177 177 176 182 188 195 203 206 206 206 207 208 209 212 217 220 224 227 230 236
123 159 109 111 143 224 209 122 101 97 113 167 223 216 205 200 203 211 214 199 195 221 239 246 252 259 234 155 193 186 140 150 205 231 242 252 249 223 210 226 235 241 247 245 245 243 229 220 209 190 181 174 167 161 156 152 147 143 141 142 145 147 148 151 151 146 144 143 147 156 167 179 185 186 186 187 189 191 193 196 195 193 194 189 181 173
149 149 142 145 162 237 219 133 122 95 89 251 243 211 195 200 202 205 219 215 207 208 214 229 241 236 150 167 194 159 145 198 226 230 233 243 243 227 221 230 238 244 248 249 249 240 224 216 206 193 181 165 154 148 145 144 137 129 126 127 127 131 133 130 128 127 125 126 137 145 150 159 160 155 153 151 153 154 149 145 138 128 120 113 110 107
143 144 163 162 142 201 197 126 106 117 189 235 225 152 168 193 195 197 216 219 208 206 217 237 247 239 201 198 192 154 175 214 228 231 237 242 241 236 236 239 242 245 251 258 260 251 228 208 191 177 160 144 137 135 134 133 129 123 122 123 122 123 122 119 117 118 119 122 129 133 135 139 137 132 129 125 124 125 122 119 115 112 108 105 102 96
140 136 156 134 108 157 163 114 127 201 221 248 30 141 177 188 187 201 225 224 206 211 226 241 249 246 236 217 150 160 204 232 244 244 249 242 209 204 218 230 236 239 251 272 295 317 264 173 147 130 126 126 127 129 127 125 125 122 120 120 119 117 116 115 114 114 115 117 119 122 124 125 124 122 119 118 120 119 116 114 109 103 97 91 88 82
148 144 137 111 116 138 130 145 186 227 266 297 333 115 158 148 154 202 248 249 221 208 218 233 245 252 249 171 177 198 205 242 264 240 240 229 204 194 203 222 238 247 281 336 10 21 53 126 130 124 124 125 127 128 125 125 126 122 118 118 117 115 115 113 109 108 110 112 113 116 119 119 120 119 117 118 119 115 111 106 100 95 90 87 84 80
148 146 136 130 157 140 142 194 228 312 301 273 239 155 151 150 158 175 229 248 230 205 211 230 246 256 246 190 218 221 160 152 265 258 246 234 219 195 172 134 52 67 65 65 71 70 79 100 111 113 117 119 120 122 124 126 128 123 117 115 113 112 111 107 104 104 107 108 110 113 116 118 118 117 116 117 114 108 103 97 93 90 86 84 80 73
148 154 156 160 173 118 127 193 243 271 263 241 170 173 183 175 166 162 204 251 236 191 200 221 238 247 235 200 222 208 147 200 255 255 238 228 219 68 71 67 67 77 80 82 85 83 85 94 99 104 111 112 110 115 122 125 125 120 114 110 109 109 105 101 101 103 106 106 109 112 113 114 114 112 111 109 104 100 95 89 84 80 76 72 65 58
113 81 134 143 156 142 142 174 201 218 239 206 164 190 189 162 139 125 179 263 236 171 189 212 230 237 218 205 214 163 137 226 257 255 236 215 51 59 86 88 76 77 80 86 93 92 92 97 101 104 108 107 108 118 126 127 124 117 109 106 106 103 98 97 100 104 106 107 108 109 109 108 108 105 103 99 94 91 88 82 78 72 66 61 54 46
98 63 130 151 171 167 161 186 217 233 243 202 182 186 173 148 119 108 203 256 222 186 194 201 220 231 211 200 195 147 171 226 242 236 207 106 68 59 83 93 91 91 89 90 95 99 101 103 103 100 99 102 112 124 130 129 123 114 107 105 102 96 93 99 104 106 108 108 106 105 103 102 100 96 93 89 84 82 79 74 70 65 56 51 46 40
116 126 172 173 174 171 176 201 250 261 229 201 182 160 145 124 105 139 216 233 207 211 208 188 207 224 205 186 183 179 205 223 150 140 134 102 88 71 76 88 94 94 95 97 102 104 102 99 99 97 97 106 118 125 130 129 118 108 106 103 96 92 97 106 110 109 108 106 104 102 99 96 94 89 85 82 78 75 72 66 60 54 47 43 40 37
156 138 139 162 161 168 176 189 260 273 231 176 153 154 149 131 136 209 211 186 185 210 205 191 208 213 190 187 193 181 162 94 94 104 92 91 100 95 91 95 93 91 96 100 103 106 103 98 97 98 99 108 119 124 130 128 116 107 104 99 94 97 108 111 111 110 108 105 102 99 96 94 91 87 85 82 78 73 69 64 58 52 48 44 41 41
166 157 184 191 168 147 157 180 227 258 210 142 128 145 181 182 196 201 173 122 195 191 171 183 215 213 188 183 163 127 119 106 100 100 93 94 101 100 99 99 98 98 100 100 102 109 109 102 96 96 98 105 114 119 125 124 115 107 102 98 99 109 114 111 112 112 108 104 101 98 96 94 91 89 86 82 78 74 71 67 62 56 52 47 42 41
184 176 183 202 181 139 165 200 209 207 180 153 142 163 200 202 190 170 151 138 198 183 155 144 167 248 203 159 135 130 130 125 125 122 113 108 106 106 103 101 104 106 104 105 109 114 113 108 102 100 100 103 109 113 118 120 116 108 103 103 109 117 116 114 115 113 108 104 101 98 96 93 90 88 86 81 78 76 72 67 62 55 50 45 40 39
207 193 164 178 187 177 193 211 213 181 168 164 156 174 179 170 143 155 146 131 163 192 162 129 136 214 159 129 129 133 137 144 144 131 121 118 114 110 105 101 105 109 108 109 112 114 114 111 108 103 99 98 104 109 112 116 115 110 106 109 116 117 116 116 115 111 106 102 99 97 95 93 89 86 83 78 74 72 68 63 58 53 51 47 44 45
202 171 127 143 192 234 248 214 150 113 162 171 12 90 151 135 125 144 123 108 152 177 149 133 151 164 144 130 124 118 136 148 137 121 122 126 119 113 111 108 107 111 113 113 113 115 115 111 107 104 98 95 100 106 108 112 113 110 110 116 118 116 116 116 113 108 104 101 99 97 96 93 88 84 80 76 72 70 68 65 63 61 58 53 50 49
208 160 146 149 174 209 232 177 146 162 185 176 140 58 75 90 82 114 117 129 157 160 142 136 144 147 141 131 126 131 145 146 136 134 137 131 128 129 123 118 117 118 120 122 122 123 120 114 109 106 102 99 101 106 108 109 111 113 117 120 119 117 117 117 113 108 105 101 99 97 95 92 88 85 83 81 78 78 78 74 69 63 56 50 47 46
188 161 173 183 176 183 202 187 154 140 140 149 149 140 133 129 98 72 104 132 134 121 103 101 118 135 137 130 132 138 146 152 148 146 145 140 139 139 132 130 130 127 126 130 132 130 124 118 115 112 109 107 107 109 111 111 112 118 122 122 121 121 120 117 113 109 105 102 98 95 92 90 89 86 84 83 80 78 76 72 67 62 56 50 45 42
147 164 178 171 178 204 279 241 128 75 48 303 244 222 184 154 133 111 108 120 121 117 101 72 61 120 148 152 147 139 143 161 161 148 147 150 147 144 142 139 136 133 134 136 136 133 127 123 121 118 114 113 115 115 114 114 116 121 123 123 124 124 120 117 113 109 105 101 99 95 91 89 87 84 83 82 79 77 74 70 65 62 60 56 51 45
148 168 160 147 188 219 205 177 173 136 141 242 231 197 166 150 136 129 129 132 138 148 141 116 73 44 93 145 156 147 145 158 163 151 148 152 152 150 147 141 136 136 136 136 135 132 127 125 124 121 118 119 121 119 117 117 119 121 124 126 126 124 121 118 114 109 105 101 97 94 92 89 85 82 81 80 80 81 81 77 72 67 64 63 59 52
174 179 171 169 197 216 192 181 179 158 174 219 199 161 158 153 135 137 153 162 166 172 162 145 129 110 91 108 154 155 150 152 156 150 142 140 146 146 144 143 142 139 138 138 136 131 126 126 125 122 121 123 124 122 119 120 120 122 125 127 126 125 122 119 115 110 105 101 98 95 93 91 87 83 81 78 77 79 79 78 75 71 70 70 67 58